Retour au catalogue

OPS 4682 DEB

ActifPO
NORAD 18538·DEBRIS·🇺🇸 United States

Lancé Apr 3, 1965 depuis Vandenberg Space Force Base

Loading…

Prochains Passages (prochaines 24 heures)

TLE

FraisSource: Space-Track

Époque: Sep 13, 2026, 07:11 UTC

1 18538U 65027AF  26256.29988198  .00000373  00000-0  12988-2 0  9993
2 18538  90.2462   5.6279 0027309 294.5315  91.6526 12.95332851507076

Suivez OPS 4682 DEB en temps réel avec AllMySat

Download on the App Store